| time (UTC) | temp F | wind direction | speed MPH | gust MPH | rain 1hr in | rain 24hr in | rain mn in | humidity % | barometer mb |
| 20260504023056 | 67 | 9 | 2.0 | 6.0 | 0.00 | 0.00 | 0.00 | 66 | 1019.3 |
| 20260504021557 | 67 | 342 | 0.0 | 3.0 | 0.00 | 0.00 | 0.00 | 66 | 1019.1 |
| 20260504020105 | 67 | 296 | 0.0 | 7.0 | 0.00 | 0.00 | 0.00 | 66 | 1019.0 |
| 20260504014557 | 66 | 23 | 1.0 | 2.0 | 0.00 | 0.00 | 0.00 | 69 | 1018.8 |
| 20260504013058 | 67 | 249 | 0.0 | 0.0 | 0.00 | 0.00 | 0.00 | 69 | 1018.5 |
| 20260504011554 | 69 | 248 | 0.0 | 2.0 | 0.00 | 0.00 | 0.00 | 62 | 1018.3 |
| 20260504010053 | 70 | 254 | 0.0 | 2.0 | 0.00 | 0.00 | 0.00 | 61 | 1018.2 |
| 20260504004553 | 69 | 244 | 2.0 | 8.0 | 0.00 | 0.00 | 0.00 | 63 | 1018.1 |
| 20260504003051 | 70 | 247 | 1.0 | 7.0 | 0.00 | 0.00 | 0.00 | 63 | 1018.1 |
| 20260504001556 | 70 | 238 | 2.0 | 6.0 | 0.00 | 0.00 | 0.00 | 62 | 1018.0 |
| 20260504000053 | 71 | 269 | 4.0 | 8.0 | 0.00 | 0.00 | 0.00 | 60 | 1017.9 |
| 20260503234549 | 72 | 207 | 4.0 | 9.0 | 0.00 | 0.00 | 0.00 | 58 | 1018.0 |
| 20260503233049 | 72 | 188 | 3.0 | 9.0 | 0.00 | 0.00 | 0.00 | 55 | 1018.1 |
| 20260503231548 | 73 | 262 | 1.0 | 6.0 | 0.00 | 0.00 | 0.00 | 55 | 1018.0 |
| 20260503224547 | 73 | 224 | 5.0 | 10.0 | 0.00 | 0.00 | 0.00 | 52 | 1018.0 |
| 20260503223046 | 73 | 207 | 3.0 | 10.0 | 0.00 | 0.00 | 0.00 | 51 | 1018.1 |
| 20260503221545 | 74 | 226 | 4.0 | 10.0 | 0.00 | 0.00 | 0.00 | 48 | 1018.0 |
| 20260503220045 | 73 | 178 | 6.0 | 11.0 | 0.00 | 0.00 | 0.00 | 44 | 1018.1 |
| 20260503214544 | 73 | 219 | 5.0 | 10.0 | 0.00 | 0.00 | 0.00 | 42 | 1018.3 |
| 20260503213041 | 73 | 188 | 3.0 | 14.0 | 0.00 | 0.00 | 0.00 | 41 | 1018.4 |
| 20260503211553 | 73 | 197 | 3.0 | 11.0 | 0.00 | 0.00 | 0.00 | 43 | 1018.6 |
| 20260503210037 | 73 | 248 | 4.0 | 12.0 | 0.00 | 0.00 | 0.00 | 47 | 1018.8 |
| 20260503204537 | 73 | 244 | 5.0 | 10.0 | 0.00 | 0.00 | 0.00 | 46 | 1018.9 |
| 20260503203043 | 73 | 212 | 4.0 | 12.0 | 0.00 | 0.00 | 0.00 | 48 | 1019.0 |
| 20260503201534 | 73 | 250 | 6.0 | 15.0 | 0.00 | 0.00 | 0.00 | 42 | 1019.2 |
| 20260503200046 | 74 | 199 | 8.0 | 12.0 | 0.00 | 0.00 | 0.00 | 42 | 1019.3 |
| 20260503194532 | 76 | 230 | 7.0 | 12.0 | 0.00 | 0.00 | 0.00 | 41 | 1019.5 |
| 20260503193035 | 77 | 25 | 1.0 | 9.0 | 0.00 | 0.00 | 0.00 | 35 | 1020.0 |
| 20260503191531 | 76 | 2 | 0.0 | 4.0 | 0.00 | 0.00 | 0.00 | 33 | 1020.1 |
| 20260503190032 | 75 | 343 | 6.0 | 12.0 | 0.00 | 0.00 | 0.00 | 31 | 1020.5 |
| 20260503184535 | 75 | 136 | 2.0 | 7.0 | 0.00 | 0.00 | 0.00 | 36 | 1020.6 |
| 20260503183025 | 76 | 44 | 2.0 | 6.0 | 0.00 | 0.00 | 0.00 | 36 | 1020.8 |
| 20260503181522 | 75 | 41 | 0.0 | 4.0 | 0.00 | 0.00 | 0.00 | 35 | 1021.0 |
| 20260503180038 | 74 | 4 | 3.0 | 8.0 | 0.00 | 0.00 | 0.00 | 34 | 1021.2 |
| 20260503174524 | 74 | 45 | 2.0 | 10.0 | 0.00 | 0.00 | 0.00 | 34 | 1021.2 |
| 20260503173024 | 73 | 160 | 0.0 | 8.0 | 0.00 | 0.00 | 0.00 | 36 | 1021.2 |
| 20260503171516 | 73 | 133 | 2.0 | 11.0 | 0.00 | 0.00 | 0.00 | 35 | 1021.5 |
| 20260503150110 | 70 | 24 | 2.0 | 7.0 | 0.00 | 0.00 | 0.00 | 49 | 1022.4 |
| 20260503081517 | 57 | 51 | 1.0 | 5.0 | 0.00 | 0.85 | 0.00 | 72 | 1019.7 |
| 20260503071602 | 58 | 42 | 2.0 | 5.0 | 0.00 | 1.04 | 0.00 | 70 | 1019.4 |
| 20260503054546 | 60 | 25 | 2.0 | 5.0 | 0.00 | 1.37 | 0.00 | 65 | 1019.2 |
| 20260503053044 | 60 | 35 | 1.0 | 3.0 | 0.00 | 1.37 | 0.00 | 66 | 1019.1 |
| 20260503051542 | 61 | 39 | 1.0 | 4.0 | 0.00 | 1.37 | 0.00 | 65 | 1019.0 |
| 20260503050041 | 61 | 34 | 0.0 | 3.0 | 0.00 | 1.37 | 0.00 | 65 | 1019.0 |
| 20260503044543 | 61 | 31 | 0.0 | 3.0 | 0.00 | 1.41 | 1.37 | 65 | 1018.9 |
| 20260503043037 | 61 | 26 | 1.0 | 4.0 | 0.00 | 1.41 | 1.37 | 64 | 1018.8 |
| 20260503041536 | 62 | 41 | 1.0 | 5.0 | 0.00 | 1.41 | 1.37 | 63 | 1018.6 |
| 20260503040035 | 62 | 27 | 1.0 | 5.0 | 0.00 | 1.41 | 1.37 | 61 | 1018.5 |
| 20260503034533 | 62 | 38 | 2.0 | 4.0 | 0.00 | 1.51 | 1.37 | 59 | 1018.4 |
| 20260503033037 | 63 | 56 | 3.0 | 6.0 | 0.00 | 1.51 | 1.37 | 58 | 1018.3 |
| 20260503031529 | 63 | 65 | 1.0 | 4.0 | 0.00 | 1.51 | 1.37 | 59 | 1018.2 |
| 20260503030044 | 63 | 30 | 1.0 | 4.0 | 0.00 | 1.51 | 1.37 | 58 | 1018.0 |
| 20260503024531 | 64 | 14 | 3.0 | 5.0 | 0.00 | 1.88 | 1.37 | 56 | 1017.9 |